[[{"header":{"parameterUnit":"m.s-1","parameterCategory":1,"la1":30.2991,"la2":30.254,"lo1":-89.0895,"lo2":-89.0444,"dy":0.0017,"dx":0.0017,"nx":28,"ny":28,"refTime":"2023-10-31T09:00:00:Z","depth":0,"parameterNumber":2,"parameterNumberName":"U-component_of_WINDS"},"data":[0,0,0,0,0,0,0,0,0,0,0,0,0,0,0,0,0,0,0,0,0,0,0,0,0,0,0,0,0,0,0,0,0,0,0,0,0,0,0,0,0,0,0,0,0,0,0,0,0,0,0,0,0,0,0,0,0,0,1.3246,1.3246,0,1.3252,1.3252,1.3252,1.3252,1.3252,1.3252,1.3252,1.3257,1.3257,1.3257,0,0,0,0,0,0,0,0,0,0,0,0,0,1.3235,1.3236,1.3246,1.3246,1.3246,1.3252,1.3252,1.3252,1.3252,1.3252,1.3252,1.3252,1.3257,1.3257,1.3257,0,0,0,0,0,0,0,0,0,0,0,0,0,1.324,1.3236,1.3246,1.3247,1.3247,1.3252,1.3252,1.3252,1.3252,1.3252,1.3252,1.3252,1.3257,1.3257,1.3257,1.3261,0,0,1.3258,1.3258,0,0,0,0,0,0,0,0,1.324,1.3241,1.3247,1.3247,1.3247,1.3251,1.325,1.3255,1.3252,1.325,1.3252,1.3252,1.3255,1.3255,1.3257,1.3262,1.3262,1.3258,1.3259,1.3259,1.3259,0,0,0,0,0,0,0,1.324,1.3241,1.3248,1.3247,1.3247,1.3247,1.3248,1.3251,1.3253,1.325,1.325,1.3251,1.3255,1.3256,1.3257,1.3262,1.3258,1.3259,1.3259,1.3259,1.3272,1.3273,0,0,0,0,0,0,1.3239,1.324,1.3248,1.3248,1.3243,1.3247,1.3248,1.325,1.3253,1.3253,1.3251,1.3251,1.3256,1.3257,1.3257,1.3263,1.3259,1.3259,1.3259,1.3272,1.3272,1.3273,0,0,0,0,0,0,1.3239,1.324,1.3248,1.3244,1.3245,1.3248,1.325,1.325,1.3251,1.3254,1.3254,1.3252,1.3256,1.3257,1.3261,1.3263,1.3259,1.3259,1.3272,1.3272,1.3273,1.3274,0,0,0,0,0,0,1.3239,1.324,1.3241,1.3244,1.3246,1.3251,1.325,1.325,1.3252,1.3252,1.3255,1.3255,1.3256,1.326,1.3261,1.3263,1.326,1.3272,1.3272,1.3272,1.3274,1.3274,1.3275,0,0,0,0,0,1.3238,1.3241,1.3241,1.3242,1.3247,1.3251,1.3252,1.3253,1.3252,1.3254,1.3256,1.3255,1.3263,1.3261,1.3262,1.3264,1.3272,1.3272,1.3272,1.3273,1.3274,1.3275,0,0,0,0,0,0,1.3237,1.3241,1.3242,1.3245,1.3248,1.3251,1.3253,1.3253,1.3256,1.3256,1.3257,1.3258,1.3262,1.3264,1.3261,1.3269,1.3267,1.3268,1.3268,1.3268,1.3269,1.3268,1.326,0,0,0,0,0,1.3237,1.324,1.3244,1.3246,1.3248,1.325,1.3252,1.3253,1.3256,1.3257,1.3259,1.3262,1.3265,1.3267,1.327,1.3274,1.3275,1.3277,1.3277,1.3277,1.3278,1.3281,1.3282,1.3274,1.3274,1.3274,0,0,1.3237,1.324,1.3241,1.3246,1.3248,1.3252,1.3251,1.3254,1.3257,1.3257,1.3261,1.3263,1.3267,1.3271,1.3273,1.3272,1.328,1.3278,1.3278,1.3278,1.3282,1.3283,1.3283,1.3274,1.3274,1.3274,0,0,1.3239,1.3241,1.3244,1.3247,1.3251,1.3253,1.3254,1.3257,1.3259,1.3263,1.3264,1.3268,1.3273,1.3275,1.3277,1.3283,1.3283,1.3284,1.3286,1.329,1.329,1.3291,1.3293,1.3294,1.3284,1.3284,1.3284,0,1.3238,1.3243,1.3246,1.3249,1.3252,1.3253,1.3257,1.3259,1.3264,1.3266,1.3265,1.3273,1.3275,1.3281,1.3282,1.3284,1.3285,1.3283,1.329,1.3291,1.3291,1.3293,1.3294,1.3285,1.3285,1.3285,1.3285,0,1.3243,1.3246,1.3249,1.3254,1.3256,1.326,1.3263,1.3266,1.3267,1.327,1.3275,1.3278,1.3282,1.3284,1.3285,1.3291,1.329,1.329,1.3288,1.3292,1.3294,1.3295,1.3285,1.3285,1.3285,1.3285,0,0,1.3242,1.325,1.3251,1.3254,1.3259,1.3262,1.3266,1.3271,1.3273,1.3277,1.3281,1.3287,1.3287,1.3289,1.3291,1.3294,1.3299,1.3294,1.3294,1.3294,1.3306,1.3306,1.3307,1.33,1.33,1.33,1.3306,0,1.3245,1.3252,1.3255,1.3261,1.3265,1.3268,1.3272,1.3276,1.3278,1.3282,1.3286,1.329,1.3289,1.3291,1.3295,1.3298,1.3301,1.3297,1.3303,1.3303,1.3302,1.3308,1.3307,1.3313,1.3307,1.3307,1.3307,0,1.3248,1.3252,1.3259,1.3265,1.3267,1.327,1.3276,1.3279,1.3285,1.3287,1.329,1.3292,1.3298,1.3296,1.3304,1.3301,1.3304,1.3307,1.3307,1.3307,1.3305,1.3308,1.3315,1.3315,1.3308,1.3308,1.3308,0,1.3247,1.3255,1.326,1.3262,1.327,1.3272,1.3275,1.3281,1.3284,1.3289,1.3291,1.3297,1.3299,1.3304,1.3308,1.3306,1.3315,1.3314,1.3317,1.3317,1.3318,1.3318,1.3325,1.3321,1.3321,1.3321,1.3321,0,1.3249,1.3253,1.326,1.3263,1.3268,1.3272,1.3277,1.328,1.3285,1.329,1.3293,1.3297,1.3302,1.3306,1.331,1.3316,1.3317,1.3319,1.332,1.3318,1.3318,1.332,1.3319,1.3321,1.3321,1.3321,1.3321,0,1.3248,1.3253,1.3259,1.3266,1.3268,1.3271,1.3277,1.3281,1.3285,1.329,1.3292,1.3298,1.3304,1.3309,1.3316,1.3318,1.3325,1.3326,1.3323,1.3324,1.3326,1.3326,1.3334,1.3336,1.3331,1.3331,1.3331,0,1.3248,1.3252,1.326,1.3263,1.3266,1.3271,1.3275,1.328,1.3284,1.3291,1.3294,1.3301,1.3306,1.3316,1.3321,1.3327,1.3328,1.3331,1.3329,1.3328,1.3328,1.3328,1.3328,1.3331,1.3331,1.3331,1.3331,0,1.3249,1.3252,1.3257,1.3263,1.3268,1.3273,1.3278,1.3281,1.3287,1.3292,1.3298,1.3303,1.3311,1.3318,1.3325,1.3329,1.3331,1.3332,1.3333,1.3331,1.3329,1.333,1.3324,1.3331,1.3331,1.3331,1.3331,1.3331,1.3249,1.3252,1.3259,1.3265,1.327,1.3275,1.3279,1.3284,1.329,1.3297,1.33,1.3307,1.3314,1.3324,1.3328,1.3334,1.3334,1.3336,1.3336,1.3336,1.3336,1.3329,1.3336,1.3336,1.3336,1.3336,1.3336,0,1.325,1.3255,1.326,1.3268,1.3273,1.3276,1.3282,1.3286,1.3292,1.3299,1.3304,1.3313,1.332,1.3326,1.3334,1.3337,1.3339,1.3339,1.3338,1.3339,1.3336,1.3334,1.3338,1.3338,1.3338,1.3338,1.3338,1.3338,1.3251,1.3257,1.3261,1.327,1.3275,1.3282,1.3285,1.3291,1.3296,1.3305,1.3311,1.3315,1.3322,1.3331,1.3337,1.3339,1.3342,1.3342,1.3344,1.334,1.334,1.3339,1.3338,1.3343,1.3343,1.3347,1.3347,1.3348]},{"header":{"parameterUnit":"m.s-1","parameterCategory":1,"la1":30.2991,"la2":30.254,"lo1":-89.0895,"lo2":-89.0444,"dy":0.0017,"dx":0.0017,"nx":28,"ny":28,"refTime":"2023-10-31T09:00:00:Z","depth":0,"parameterNumber":3,"parameterNumberName":"V-component_of_WINDS"},"data":[0,0,0,0,0,0,0,0,0,0,0,0,0,0,0,0,0,0,0,0,0,0,0,0,0,0,0,0,0,0,0,0,0,0,0,0,0,0,0,0,0,0,0,0,0,0,0,0,0,0,0,0,0,0,0,0,0,0,-8.9955,-8.9957,0,-9.0147,-9.0149,-9.0151,-9.0088,-9.0084,-9.008,-9.0076,-9.0264,-9.0272,-9.0281,0,0,0,0,0,0,0,0,0,0,0,0,0,-8.9527,-8.9536,-8.9955,-8.9958,-8.996,-9.0146,-9.0149,-9.0152,-9.0089,-9.0084,-9.0079,-9.0074,-9.0261,-9.0271,-9.0282,0,0,0,0,0,0,0,0,0,0,0,0,0,-8.9715,-8.9538,-8.9955,-8.9951,-8.9953,-9.0146,-9.0149,-9.0152,-9.009,-9.0084,-9.0077,-9.0072,-9.0257,-9.027,-9.0283,-9.0489,0,0,-9.0324,-9.033,0,0,0,0,0,0,0,0,-8.9705,-8.9731,-8.9949,-8.9952,-8.9954,-9.0087,-9.0067,-9.0265,-9.0091,-9.0038,-9.0076,-9.0069,-9.021,-9.0226,-9.0276,-9.0498,-9.0506,-9.0325,-9.0333,-9.0339,-9.0343,0,0,0,0,0,0,0,-8.9692,-8.9722,-9.0031,-8.9953,-8.9955,-8.9938,-8.9957,-9.0104,-9.0155,-9.0042,-9.0038,-9.0062,-9.0209,-9.0263,-9.0279,-9.0509,-9.0325,-9.0337,-9.0345,-9.035,-9.0908,-9.0915,0,0,0,0,0,0,-8.9678,-8.9712,-9.0025,-9.0036,-8.9812,-8.995,-8.9973,-9.0051,-9.0154,-9.0164,-9.0067,-9.0058,-9.0243,-9.0264,-9.0286,-9.0533,-9.0339,-9.0351,-9.0359,-9.0901,-9.091,-9.0917,0,0,0,0,0,0,-8.967,-8.9707,-9.0017,-8.9873,-8.9911,-8.9964,-9.0052,-9.0058,-9.0111,-9.0173,-9.0181,-9.0113,-9.0239,-9.0267,-9.0439,-9.0539,-9.0357,-9.0369,-9.0893,-9.0904,-9.0913,-9.103,0,0,0,0,0,0,-8.9658,-8.9704,-8.9785,-8.9876,-8.9919,-9.017,-9.0059,-9.0066,-9.0135,-9.0126,-9.0218,-9.0227,-9.0237,-9.042,-9.0453,-9.0554,-9.038,-9.0884,-9.0898,-9.091,-9.1017,-9.1043,-9.1065,0,0,0,0,0,-8.9642,-8.9808,-8.9789,-8.9827,-9.0022,-9.0176,-9.0201,-9.0211,-9.0143,-9.0224,-9.0263,-9.0224,-9.0523,-9.0438,-9.0474,-9.0581,-9.0878,-9.0894,-9.0909,-9.1007,-9.1038,-9.1064,0,0,0,0,0,0,-8.9724,-8.982,-8.98,-9.0,-9.0081,-9.0165,-9.0266,-9.0243,-9.0342,-9.0329,-9.0334,-9.0355,-9.0532,-9.0574,-9.0478,-9.0785,-9.069,-9.0714,-9.0752,-9.0782,-9.0805,-9.0791,-9.0391,0,0,0,0,0,-8.9766,-8.9886,-8.9962,-9.0131,-9.0173,-9.0213,-9.0281,-9.0282,-9.0364,-9.0397,-9.0449,-9.0528,-9.064,-9.0713,-9.0819,-9.1023,-9.1041,-9.1114,-9.1138,-9.1157,-9.1177,-9.1287,-9.132,-9.0968,-9.0968,-9.0967,0,0,-8.9853,-8.992,-8.9995,-9.015,-9.0212,-9.0334,-9.0242,-9.0375,-9.0464,-9.0416,-9.0583,-9.0624,-9.0712,-9.0901,-9.0987,-9.0941,-9.1278,-9.1176,-9.1191,-9.1201,-9.1306,-9.1339,-9.1369,-9.0978,-9.0976,-9.0975,0,0,-9.0073,-9.0137,-9.0285,-9.035,-9.0447,-9.0473,-9.0508,-9.0597,-9.0623,-9.0791,-9.0757,-9.0863,-9.1055,-9.112,-9.1178,-9.1424,-9.1391,-9.1458,-9.1581,-9.1688,-9.1716,-9.174,-9.1828,-9.1859,-9.1477,-9.1478,-9.1478,0,-9.0168,-9.0353,-9.0363,-9.05,-9.0568,-9.0533,-9.0682,-9.0744,-9.0869,-9.0916,-9.0863,-9.1105,-9.1162,-9.1365,-9.1426,-9.1474,-9.1513,-9.1447,-9.1712,-9.1736,-9.1759,-9.1842,-9.1875,-9.1485,-9.1484,-9.1483,-9.1483,0,-9.0464,-9.0593,-9.0701,-9.0826,-9.0907,-9.1048,-9.1078,-9.1158,-9.1152,-9.1182,-9.1353,-9.1421,-9.154,-9.1588,-9.1582,-9.1791,-9.1759,-9.171,-9.1614,-9.18,-9.1878,-9.191,-9.1496,-9.1493,-9.1491,-9.1489,0,0,-9.0741,-9.0872,-9.0911,-9.0967,-9.1072,-9.117,-9.131,-9.1429,-9.1497,-9.1585,-9.17,-9.1865,-9.182,-9.1885,-9.1886,-9.1981,-9.2171,-9.1919,-9.1921,-9.1963,-9.2404,-9.244,-9.2477,-9.215,-9.2156,-9.2161,-9.2396,0,-9.097,-9.1219,-9.1232,-9.1456,-9.1575,-9.1543,-9.1664,-9.174,-9.1773,-9.1875,-9.1909,-9.2026,-9.1958,-9.1997,-9.2089,-9.2128,-9.2259,-9.2111,-9.2256,-9.2261,-9.2234,-9.2518,-9.2558,-9.2776,-9.2427,-9.2432,-9.2436,0,-9.127,-9.137,-9.1608,-9.1696,-9.1746,-9.1855,-9.1966,-9.2065,-9.215,-9.2166,-9.2241,-9.2229,-9.2369,-9.227,-9.2462,-9.2362,-9.2421,-9.2449,-9.2458,-9.2471,-9.2359,-9.2538,-9.2846,-9.2879,-9.2484,-9.248,-9.2477,0,-9.1448,-9.1642,-9.1809,-9.1858,-9.1965,-9.2042,-9.209,-9.2169,-9.224,-9.2336,-9.2381,-9.2491,-9.2551,-9.2635,-9.2652,-9.2578,-9.2844,-9.2746,-9.286,-9.286,-9.2917,-9.2913,-9.3238,-9.2957,-9.2956,-9.2956,-9.2955,0,-9.1702,-9.1848,-9.189,-9.1993,-9.2155,-9.2168,-9.2327,-9.2369,-9.244,-9.2548,-9.2527,-9.2628,-9.2645,-9.2749,-9.2763,-9.292,-9.2947,-9.2962,-9.2964,-9.2965,-9.2963,-9.3003,-9.2988,-9.2964,-9.2962,-9.2961,-9.2959,0,-9.1927,-9.1962,-9.2142,-9.223,-9.2255,-9.2371,-9.2444,-9.2541,-9.2571,-9.2709,-9.2741,-9.2788,-9.291,-9.2936,-9.3079,-9.3088,-9.3275,-9.3262,-9.3247,-9.3246,-9.3358,-9.3347,-9.372,-9.377,-9.3456,-9.3459,-9.3462,0,-9.2087,-9.2199,-9.23,-9.2373,-9.2425,-9.2542,-9.2615,-9.2631,-9.2708,-9.2813,-9.2897,-9.3018,-9.3115,-9.3311,-9.3356,-9.3466,-9.3455,-9.3578,-9.3471,-9.3467,-9.3456,-9.3449,-9.346,-9.3598,-9.3601,-9.3604,-9.3606,0,-9.2367,-9.2379,-9.2487,-9.2601,-9.269,-9.278,-9.2865,-9.2925,-9.2953,-9.3039,-9.3166,-9.3242,-9.339,-9.3509,-9.3619,-9.3665,-9.364,-9.364,-9.3672,-9.3673,-9.366,-9.3668,-9.3303,-9.3631,-9.3629,-9.3627,-9.3625,-9.3624,-9.2564,-9.2663,-9.2749,-9.287,-9.2936,-9.3017,-9.3113,-9.3156,-9.3263,-9.3387,-9.339,-9.3527,-9.3608,-9.3754,-9.3807,-9.3913,-9.3874,-9.392,-9.3932,-9.3943,-9.3953,-9.3644,-9.3932,-9.3932,-9.3931,-9.3931,-9.393,0,-9.2842,-9.2897,-9.3008,-9.313,-9.3225,-9.3196,-9.3289,-9.3369,-9.3492,-9.3571,-9.3668,-9.3813,-9.3928,-9.3983,-9.4096,-9.4171,-9.4162,-9.42,-9.4194,-9.4205,-9.3982,-9.3943,-9.4205,-9.4205,-9.4205,-9.4205,-9.4205,-9.4205,-9.2998,-9.3163,-9.3185,-9.3382,-9.3435,-9.3572,-9.3628,-9.3701,-9.3764,-9.3928,-9.4025,-9.4061,-9.413,-9.4249,-9.4353,-9.4365,-9.4408,-9.4451,-9.4458,-9.4249,-9.4221,-9.4194,-9.4157,-9.446,-9.4461,-9.4672,-9.4674,-9.4676]}]]